KSDF Airport Diagram

We have created a template for each of the higher traffic airports in the vZID airspace. They include KCMH, KCRW, KCVG, KDAY, KIND, KLEX and KSDF. You wil find usefull information including the airport diagram, weather, and specific airport procedures.

KSDF Weather

[Source: ADDS]
METAR
KSDF 241556Z 16005KT 10SM FEW250 09/M02 A2998 RMK AO2 SLP152 T00941022 =
TAF
KSDF 241120Z 2412/2518 15003KT P6SM SKC FM241600 20009KT P6SM FEW250 =

SDF Operations

Calm Wind Configuration is runways 17L and 17R

Runway 17L typically departs north and east

Runway 17R typicall departs south and west

 

JSN Epic template designed by JoomlaShine.com